Regional Weather Roundup
Issued by NWS

Home | Current Version | Previous Version | Text Only | Print | Product List | Glossary Off
Versions: 1 2 3 4 5 6 7 8 9 10 11 12 13 14 15 16 17 18 19 20 21 22 23 24 25 26 27 28 29 30 31 32 33 34 35 36 37 38 39 40 41 42 43 44 45 46 47 48 49 50

000
ASUS43 KLOT 290003
RWRIL

ILLINOIS REGIONAL WEATHER ROUNDUP
NATIONAL WEATHER SERVICE CHICAGO/ROMEOVILLE IL
700 PM CDT FRI APR 28 2017

NOTE: "FAIR" INDICATES FEW OR NO CLOUDS BELOW 12,000 FEET WITH NO
SIGNIFICANT WEATHER AND/OR OBSTRUCTIONS TO VISIBILITY.

* THESE STATIONS ARE NOT UNDER NWS QUALITY CONTROL. THEY ALSO MAY NOT
  REPORT WEATHER SUCH AS PRECIPITATION OR FOG.

ILZ001-002-007-009-015-016-024-290100-
NORTHWEST ILLINOIS

CITY           SKY/WX    TMP DP  RH WIND       PRES   REMARKS
MOLINE         CLOUDY    50  47  89 NE7       29.85R
6HR MIN TEMP:  45; 6HR MAX TEMP:  50; 6HR PCP:  0.03;

STERLING*      CLOUDY    50  48  93 N9        29.87S
SAVANNA*       DRIZZLE   46  45  97 N9        29.89S
$$

ILZ003-004-008-010-011-017-018-290100-
NORTH CENTRAL ILLINOIS

CITY           SKY/WX    TMP DP  RH WIND       PRES   REMARKS
ROCKFORD       CLOUDY    51  48  89 NE9       29.91S
6HR MIN TEMP:  50; 6HR MAX TEMP:  52; 6HR PCP:  0.03;

FREEPORT*      DRIZZLE   46  45  97 N6        29.92R
ROCHELLE*      CLOUDY    53  50  90 N10       29.87F FOG
DE KALB*       CLOUDY    57  49  76 SE3       29.88R
PERU*          CLOUDY    58  52  79 CALM      29.85S
$$

ILZ005-006-012>014-019>023-290100-
NORTHEAST ILLINOIS

CITY           SKY/WX    TMP DP  RH WIND       PRES   REMARKS
CHICAGO-OHARE  CLOUDY    55  44  66 NE8       29.88R
6HR MIN TEMP:  55; 6HR MAX TEMP:  60; 6HR PCP: TRACE;

CHICAGO-MIDWAY CLOUDY    53  45  74 E8        29.88R
6HR MIN TEMP:  53; 6HR MAX TEMP:  58;

AURORA         CLOUDY    60  50  69 CALM      29.86S
6HR MIN TEMP:  55; 6HR MAX TEMP:  62; 6HR PCP:  0.01;

LANSING*       CLOUDY    54  49  81 NE5       29.87F
JOLIET*        CLOUDY    60  53  76 SE3       29.86S
WAUKEGAN       CLOUDY    47  41  80 NE5       29.90R
6HR MIN TEMP:  46; 6HR MAX TEMP:  49;

DUPAGE AIRPORT CLOUDY    58  48  69 E7        29.86S HAZE
6HR MIN TEMP:  55; 6HR MAX TEMP:  60; 6HR PCP: TRACE;

KANKAKEE*      CLOUDY    59  53  79 E5        29.86F
WHEELING       CLOUDY    49  44  83 NE5       29.91R
6HR MIN TEMP:  49; 6HR MAX TEMP:  55;

MORRIS*        CLOUDY    59  52  77 CALM      29.85R
NORTHERLY ISL    N/A     47  42  83 NE7         N/A
$$

LMZ740>746-290100-
SOUTHERN LAKE MICHIGAN

STATION/POSITION SKY/WX   TEMP    WIND        PRES    VSBY  WAVE
                          AIR SEA DIR/SP/G                  HT/PER
                          (F)     (DEG/KT/KT) (MB)    (MI)  (FT/S)
SOUTHERN BUOY              42 42   50/  8/ 10 1012.6          0
HARRISON CRIB              47      60/ 11/ 12   N/A
BURNHAM HARBOR             47      30/  4/  8   N/A
CALUMET HARBOR             47      20/  5/  7 1011.4R
BURNS HARBOR               49      70/  6/  7 1012.5S
MICHIGAN CITY              47      30/  8/  9   N/A
MICHIGAN CITY 6N           45 46                N/A           1/ 2
ST. JOSEPH                 48 48   60/ 10/ 12 1012.6R         2/ 2
$$

ILZ025>027-034>036-040-047-049-050-058-095>099-290100-
WEST-CENTRAL ILLINOIS

CITY           SKY/WX    TMP DP  RH WIND       PRES   REMARKS
QUINCY         LGT RAIN  57  56  96 SE5       29.81R FOG
GALESBURG*     CLOUDY    57  54  91 CALM      29.84R
MACOMB*        CLOUDY    59  55  87 E3        29.84R
JACKSONVILLE*  CLOUDY    57  54  89 E5        29.81R
PITTSFIELD*    CLOUDY    56  55  95 CALM      29.82R FOG
$$

ILZ028>032-037-038-041>044-048-051>054-059>061-290100-
CENTRAL ILLINOIS

CITY           SKY/WX    TMP DP  RH WIND       PRES   REMARKS
PONTIAC        CLOUDY    59  56  91 E5        29.85S
BLOOMINGTON    CLOUDY    56  53  90 E7        29.84R
DECATUR        CLOUDY    56  56 100 SE14      29.81F
PEORIA         CLOUDY    60  54  80 E3        29.83R
6HR MIN TEMP:  53; 6HR MAX TEMP:  61; 6HR PCP: TRACE;

LACON*         CLOUDY    59  54  82 E3        29.83S
LINCOLN*       CLOUDY    57  55  93 SE7       29.81F
SPRINGFIELD    CLOUDY    58  54  86 SE12      29.80S
6HR MIN TEMP:  57; 6HR MAX TEMP:  59; 6HR PCP:  0.04;

TAYLORVILLE    CLOUDY    56  55  96 E9        29.80F
6HR MIN TEMP:  52; 6HR MAX TEMP:  56; 6HR PCP:  0.16;

$$

ILZ033-039-045-046-055>057-062-063-290100-
EAST-CENTRAL ILLINOIS

CITY           SKY/WX    TMP DP  RH WIND       PRES   REMARKS
CHAMPAIGN      CLOUDY    55  53  93 SE10      29.85R
RANTOUL*       CLOUDY    57  55  92 SE8       29.84S FOG
MATTOON        LGT RAIN  55  54  96 NE7       29.84R FOG
PARIS*         TSTM      55  55  99 E7        29.87S
$$

ILZ079-100>102-290100-
SOUTHWEST ILLINOIS

CITY           SKY/WX    TMP DP  RH WIND       PRES   REMARKS
ALTON          CLOUDY    57  55  94 E8        29.79F
BELLEVILLE     CLOUDY    57  57 100 CALM      29.79R
CAHOKIA*       CLOUDY    59  55  87 E3        29.79R
SPARTA*        CLOUDY    61  59  94 NE6       29.79F
$$

ILZ064>066-069>071-074>076-080>082-084>086-088>090-092>094-290100-
SOUTH-CENTRAL ILLINOIS

CITY           SKY/WX    TMP DP  RH WIND       PRES   REMARKS
CARBONDALE     CLOUDY    65  65 100 CALM      29.77F FOG
6HR MIN TEMP:  64; 6HR MAX TEMP:  69; 6HR PCP:  0.05;

CAIRO*         MOCLDY    74  71  88 S6        29.77F
EFFINGHAM*     LGT RAIN  57  57 100 E6        29.84R
MT. VERNON     CLOUDY    59  58  96 N6        29.80S
CENTRALIA*     CLOUDY    58  57  99 NE5       29.80R FOG
SALEM*         CLOUDY    58  56  92 NE5       29.81R FOG
METROPOLIS*    CLOUDY    76  70  81 S5        29.79F
$$

ILZ067-068-072-073-078-083-087-091-290100-
SOUTHEAST ILLINOIS

CITY           SKY/WX    TMP DP  RH WIND       PRES   REMARKS
LAWRENCEVILLE  CLOUDY    61  60  97 N12       29.83R
FLORA*         CLOUDY    58  57  96 NE7       29.81F FOG
FAIRFIELD*     CLOUDY    59  59 100 NE5       29.79S FOG
HARRISBURG*    TSTM      72  69  91 S10       29.80S
ROBINSON*      LGT RAIN  56  55  97 N10       29.86R
CARMI*         LGT RAIN  71  68  92 S10       29.79S
$$

ABBREVIATIONS USED IN REMARKS
   TC - TEMPERATURE IN CELSIUS
  WCI - WIND CHILL INDEX
   HX - HEAT INDEX
  VSB - VISIBILITY
$$





USA.gov is the U.S. government's official web portal to all federal, state and local government web resources and services.